| time (UTC) | temp C | wind direction | speed KPH | gust KPH | rain 1hr cm | rain 24hr cm | rain mn cm | humidity % | barometer mb |
| 20260505194528 | 29 | 233 | 0.0 | 0.0 | 0.00 | 0.00 | 0.03 | 22 | 1006.5 |
| 20260505194526 | 30 | 333 | 8.0 | 12.9 | 0.00 | 0.00 | 0.00 | 28 | 1007.9 |
| 20260505193027 | 28 | 185 | 0.0 | 0.0 | 0.00 | 0.00 | 0.03 | 23 | 1006.9 |
| 20260505193023 | 30 | 63 | 3.2 | 14.5 | 0.00 | 0.00 | 0.00 | 30 | 1008.3 |
| 20260505191525 | 28 | 191 | 0.0 | 0.0 | 0.00 | 0.00 | 0.03 | 21 | 1007.2 |
| 20260505190024 | 28 | 131 | 0.0 | 0.0 | 0.00 | 0.00 | 0.03 | 23 | 1007.4 |
| 20260505190019 | 30 | 85 | 4.8 | 12.9 | 0.00 | 0.00 | 0.00 | 30 | 1008.7 |
| 20260505184527 | 29 | 194 | 0.0 | 0.0 | 0.00 | 0.00 | 0.03 | 24 | 1007.6 |
| 20260505184517 | 30 | 338 | 4.8 | 12.9 | 0.00 | 0.00 | 0.00 | 31 | 1009.2 |
| 20260505183038 | 28 | 244 | 0.0 | 0.0 | 0.00 | 0.00 | 0.03 | 26 | 1007.6 |
| 20260505183015 | 30 | 65 | 3.2 | 19.3 | 0.00 | 0.00 | 0.00 | 33 | 1009.1 |
| 20260505181520 | 29 | 231 | 0.0 | 0.0 | 0.00 | 0.00 | 0.03 | 25 | 1007.9 |
| 20260505181512 | 30 | 5 | 6.4 | 14.5 | 0.00 | 0.00 | 0.00 | 32 | 1009.3 |
| 20260505180019 | 29 | 215 | 0.0 | 0.0 | 0.00 | 0.00 | 0.03 | 25 | 1007.8 |
| 20260505180010 | 30 | 63 | 4.8 | 12.9 | 0.00 | 0.00 | 0.00 | 32 | 1009.5 |
| 20260505174517 | 29 | 170 | 0.0 | 0.0 | 0.00 | 0.00 | 0.03 | 27 | 1008.0 |
| 20260505174507 | 30 | 62 | 1.6 | 9.7 | 0.00 | 0.00 | 0.00 | 35 | 1009.5 |
| 20260505173020 | 28 | 168 | 0.0 | 0.0 | 0.00 | 0.00 | 0.03 | 27 | 1008.1 |
| 20260505173004 | 30 | 90 | 1.6 | 9.7 | 0.00 | 0.00 | 0.00 | 35 | 1009.7 |
| 20260505171605 | 29 | 79 | 3.2 | 8.0 | 0.00 | 0.00 | 0.00 | 37 | 1009.8 |
| 20260505171511 | 28 | 149 | 0.0 | 0.0 | 0.00 | 0.00 | 0.03 | 28 | 1008.2 |
| 20260505170057 | 28 | 88 | 1.6 | 8.0 | 0.00 | 0.00 | 0.00 | 37 | 1009.9 |
| 20260505170011 | 27 | 226 | 0.0 | 0.0 | 0.00 | 0.00 | 0.03 | 27 | 1008.2 |
| 20260505164554 | 28 | 120 | 3.2 | 12.9 | 0.00 | 0.00 | 0.00 | 38 | 1010.2 |
| 20260505164507 | 27 | 210 | 0.0 | 0.0 | 0.00 | 0.00 | 0.03 | 29 | 1008.5 |
| 20260505163053 | 28 | 117 | 1.6 | 4.8 | 0.00 | 0.00 | 0.00 | 38 | 1010.4 |
| 20260505163007 | 27 | 204 | 0.0 | 0.0 | 0.00 | 0.00 | 0.03 | 29 | 1008.6 |
| 20260505161551 | 28 | 68 | 0.0 | 6.4 | 0.00 | 0.00 | 0.00 | 39 | 1010.5 |
| 20260505161504 | 27 | 207 | 0.0 | 0.0 | 0.00 | 0.00 | 0.03 | 30 | 1008.8 |
| 20260505153057 | 25 | 211 | 0.0 | 0.0 | 0.00 | 0.00 | 0.03 | 35 | 1009.2 |
| 20260505153043 | 26 | 358 | 0.0 | 6.4 | 0.00 | 0.00 | 0.00 | 44 | 1011.0 |
| 20260505151553 | 25 | 197 | 0.0 | 0.0 | 0.00 | 0.00 | 0.03 | 36 | 1009.4 |
| 20260505151535 | 25 | 33 | 1.6 | 8.0 | 0.00 | 0.00 | 0.00 | 45 | 1011.2 |
| 20260505124521 | 19 | 203 | 0.0 | 0.0 | 0.00 | 0.00 | 0.03 | 50 | 1009.6 |
| 20260505124502 | 20 | 66 | 4.8 | 11.3 | 0.00 | 0.00 | 0.00 | 58 | 1011.4 |
| 20260505123104 | 19 | 59 | 3.2 | 8.0 | 0.00 | 0.00 | 0.00 | 61 | 1011.4 |
| 20260505123016 | 18 | 249 | 0.0 | 0.0 | 0.00 | 0.00 | 0.03 | 54 | 1009.5 |
| 20260505121556 | 18 | 60 | 0.0 | 6.4 | 0.00 | 0.00 | 0.00 | 64 | 1011.5 |
| 20260505121512 | 17 | 175 | 0.0 | 0.0 | 0.00 | 0.00 | 0.03 | 57 | 1009.6 |
| 20260505120109 | 17 | 65 | 0.0 | 4.8 | 0.00 | 0.00 | 0.00 | 66 | 1011.5 |
| 20260505120007 | 16 | 192 | 0.0 | 0.0 | 0.00 | 0.00 | 0.03 | 60 | 1009.6 |
| 20260505114547 | 16 | 63 | 0.0 | 3.2 | 0.00 | 0.00 | 0.00 | 69 | 1011.6 |
| 20260505114503 | 16 | 236 | 0.0 | 0.0 | 0.00 | 0.00 | 0.03 | 64 | 1009.7 |
| 20260505113059 | 15 | 162 | 0.0 | 0.0 | 0.00 | 0.00 | 0.03 | 67 | 1009.8 |
| 20260505113045 | 16 | 82 | 0.0 | 0.0 | 0.00 | 0.00 | 0.00 | 72 | 1011.7 |
| 20260505111554 | 15 | 190 | 0.0 | 0.0 | 0.00 | 0.00 | 0.03 | 69 | 1010.0 |
| 20260505111541 | 15 | 84 | 0.0 | 0.0 | 0.00 | 0.00 | 0.00 | 74 | 1011.9 |
| 20260505110104 | 15 | 84 | 0.0 | 0.0 | 0.00 | 0.00 | 0.00 | 75 | 1011.6 |
| 20260505101545 | 13 | 214 | 0.0 | 0.0 | 0.00 | 0.00 | 0.03 | 71 | 1009.6 |
| 20260505101537 | 13 | 94 | 0.0 | 0.0 | 0.00 | 0.00 | 0.00 | 77 | 1011.4 |
| 20260505100046 | 13 | 192 | 0.0 | 0.0 | 0.00 | 0.00 | 0.03 | 71 | 1009.7 |
| 20260505100037 | 13 | 89 | 0.0 | 0.0 | 0.00 | 0.00 | 0.00 | 78 | 1011.5 |
| 20260505094542 | 13 | 171 | 0.0 | 0.0 | 0.00 | 0.00 | 0.03 | 70 | 1009.0 |
| 20260505094535 | 13 | 86 | 0.0 | 0.0 | 0.00 | 0.00 | 0.00 | 77 | 1010.8 |
| 20260505093041 | 13 | 160 | 0.0 | 0.0 | 0.00 | 0.00 | 0.03 | 69 | 1008.7 |
| 20260505093034 | 13 | 86 | 0.0 | 0.0 | 0.00 | 0.00 | 0.00 | 77 | 1010.7 |
| 20260505091540 | 13 | 181 | 0.0 | 0.0 | 0.00 | 0.00 | 0.03 | 69 | 1008.9 |
| 20260505091531 | 13 | 75 | 0.0 | 0.0 | 0.00 | 0.00 | 0.00 | 76 | 1010.8 |
| 20260505090041 | 13 | 214 | 0.0 | 0.0 | 0.00 | 0.00 | 0.03 | 68 | 1008.9 |
| 20260505090035 | 13 | 79 | 0.0 | 0.0 | 0.00 | 0.00 | 0.00 | 76 | 1010.7 |
| 20260505084545 | 13 | 216 | 0.0 | 0.0 | 0.00 | 0.00 | 0.03 | 67 | 1008.8 |
| 20260505084534 | 13 | 79 | 0.0 | 0.0 | 0.00 | 0.00 | 0.00 | 76 | 1010.6 |
| 20260505083037 | 13 | 169 | 0.0 | 0.0 | 0.00 | 0.00 | 0.03 | 66 | 1009.1 |
| 20260505083030 | 13 | 91 | 0.0 | 0.0 | 0.00 | 0.00 | 0.00 | 75 | 1010.9 |
| 20260505081537 | 13 | 167 | 0.0 | 0.0 | 0.00 | 0.00 | 0.03 | 65 | 1008.8 |
| 20260505081526 | 13 | 94 | 0.0 | 0.0 | 0.00 | 0.00 | 0.00 | 74 | 1010.6 |
| 20260505080037 | 13 | 199 | 0.0 | 0.0 | 0.00 | 0.00 | 0.03 | 64 | 1008.7 |
| 20260505080028 | 13 | 80 | 0.0 | 0.0 | 0.00 | 0.00 | 0.00 | 73 | 1010.6 |
| 20260505074536 | 14 | 151 | 0.0 | 0.0 | 0.00 | 0.00 | 0.03 | 63 | 1008.9 |
| 20260505074523 | 13 | 80 | 0.0 | 0.0 | 0.00 | 0.00 | 0.00 | 72 | 1010.7 |
| 20260505073041 | 14 | 214 | 0.0 | 0.0 | 0.00 | 0.00 | 0.03 | 62 | 1008.8 |
| 20260505073023 | 14 | 81 | 0.0 | 0.0 | 0.00 | 0.00 | 0.00 | 71 | 1010.7 |
| 20260505071530 | 14 | 215 | 0.0 | 0.0 | 0.00 | 0.00 | 0.03 | 62 | 1008.9 |
| 20260505071522 | 14 | 82 | 0.0 | 0.0 | 0.00 | 0.00 | 0.00 | 70 | 1010.7 |
| 20260505070037 | 14 | 204 | 0.0 | 0.0 | 0.00 | 0.00 | 0.03 | 62 | 1008.9 |
| 20260505070022 | 14 | 81 | 0.0 | 0.0 | 0.00 | 0.00 | 0.00 | 70 | 1010.7 |
| 20260505064531 | 14 | 82 | 0.0 | 0.0 | 0.00 | 0.00 | 0.00 | 69 | 1010.6 |
| 20260505064526 | 14 | 191 | 0.0 | 0.0 | 0.00 | 0.00 | 0.03 | 62 | 1008.8 |
| 20260505063025 | 14 | 167 | 0.0 | 0.0 | 0.00 | 0.00 | 0.03 | 61 | 1008.8 |
| 20260505063020 | 14 | 82 | 0.0 | 0.0 | 0.00 | 0.00 | 0.00 | 69 | 1010.6 |
| 20260505061534 | 14 | 203 | 0.0 | 0.0 | 0.00 | 0.00 | 0.03 | 62 | 1009.0 |
| 20260505061518 | 14 | 82 | 0.0 | 0.0 | 0.00 | 0.00 | 0.00 | 70 | 1010.8 |
| 20260505060022 | 14 | 159 | 0.0 | 0.0 | 0.00 | 0.00 | 0.03 | 61 | 1009.1 |
| 20260505060017 | 13 | 82 | 0.0 | 0.0 | 0.00 | 0.00 | 0.00 | 70 | 1010.8 |
| 20260505054525 | 14 | 165 | 0.0 | 0.0 | 0.00 | 0.00 | 0.03 | 60 | 1009.1 |
| 20260505054523 | 14 | 82 | 0.0 | 0.0 | 0.00 | 0.00 | 0.00 | 68 | 1010.9 |
| 20260505053017 | 14 | 169 | 0.0 | 0.0 | 0.00 | 0.00 | 0.03 | 58 | 1009.1 |
| 20260505053010 | 14 | 82 | 0.0 | 0.0 | 0.00 | 0.00 | 0.00 | 67 | 1010.9 |
| 20260505051517 | 15 | 173 | 0.0 | 0.0 | 0.00 | 0.00 | 0.03 | 57 | 1009.2 |
| 20260505051509 | 15 | 82 | 0.0 | 0.0 | 0.00 | 0.00 | 0.00 | 66 | 1011.0 |
| 20260505041608 | 15 | 104 | 0.0 | 3.2 | 0.00 | 0.00 | 0.00 | 62 | 1011.2 |
| 20260505041559 | 15 | 158 | 0.0 | 0.0 | 0.00 | 0.00 | 0.00 | 54 | 1009.6 |
| 20260505040103 | 15 | 89 | 0.0 | 0.0 | 0.00 | 0.00 | 0.00 | 61 | 1011.3 |
| 20260505040054 | 15 | 164 | 0.0 | 0.0 | 0.00 | 0.00 | 0.00 | 52 | 1009.6 |
| 20260505034610 | 16 | 84 | 0.0 | 0.0 | 0.00 | 0.00 | 0.00 | 60 | 1011.3 |
| 20260505034550 | 16 | 162 | 0.0 | 0.0 | 0.00 | 0.00 | 0.00 | 51 | 1009.6 |
| 20260505033056 | 16 | 84 | 0.0 | 4.8 | 0.00 | 0.00 | 0.00 | 58 | 1011.4 |
| 20260505033050 | 16 | 152 | 0.0 | 0.0 | 0.00 | 0.00 | 0.00 | 50 | 1009.7 |
| 20260505031600 | 16 | 161 | 0.0 | 0.0 | 0.00 | 0.00 | 0.00 | 48 | 1009.7 |
| 20260505031554 | 16 | 67 | 0.0 | 3.2 | 0.00 | 0.00 | 0.00 | 57 | 1011.4 |
| 20260505030049 | 17 | 162 | 0.0 | 0.0 | 0.00 | 0.00 | 0.00 | 47 | 1009.9 |
| 20260505024608 | 17 | 84 | 0.0 | 1.6 | 0.00 | 0.00 | 0.00 | 54 | 1011.5 |
| 20260505024557 | 17 | 161 | 0.0 | 0.0 | 0.00 | 0.00 | 0.00 | 45 | 1009.9 |
| 20260505023053 | 17 | 91 | 0.0 | 3.2 | 0.00 | 0.00 | 0.00 | 53 | 1011.5 |
| 20260505023048 | 17 | 153 | 0.0 | 0.0 | 0.00 | 0.00 | 0.00 | 45 | 1010.0 |
| 20260505021553 | 17 | 72 | 0.0 | 4.8 | 0.00 | 0.00 | 0.00 | 52 | 1011.6 |
| 20260505020105 | 17 | 97 | 0.0 | 9.7 | 0.00 | 0.00 | 0.00 | 51 | 1011.5 |
| 20260505020047 | 18 | 184 | 0.0 | 0.0 | 0.00 | 0.00 | 0.00 | 42 | 1010.0 |
| 20260505014603 | 18 | 158 | 0.0 | 0.0 | 0.00 | 0.00 | 0.00 | 41 | 1009.9 |
| 20260505014552 | 18 | 91 | 0.0 | 3.2 | 0.00 | 0.00 | 0.00 | 50 | 1011.4 |
| 20260505013051 | 18 | 74 | 0.0 | 0.0 | 0.00 | 0.00 | 0.00 | 47 | 1011.4 |
| 20260505013042 | 18 | 191 | 0.0 | 0.0 | 0.00 | 0.00 | 0.00 | 38 | 1009.9 |
| 20260505011550 | 20 | 141 | 0.0 | 0.0 | 0.00 | 0.00 | 0.00 | 31 | 1009.6 |
| 20260505010106 | 20 | 73 | 0.0 | 1.6 | 0.00 | 0.00 | 0.00 | 39 | 1010.8 |
| 20260505010040 | 20 | 219 | 0.0 | 0.0 | 0.00 | 0.00 | 0.00 | 30 | 1009.3 |
| 20260505004601 | 20 | 77 | 0.0 | 3.2 | 0.00 | 0.00 | 0.00 | 39 | 1010.6 |
| 20260505004542 | 20 | 182 | 0.0 | 0.0 | 0.00 | 0.00 | 0.00 | 29 | 1009.1 |
| 20260505003052 | 20 | 115 | 0.0 | 3.2 | 0.00 | 0.00 | 0.00 | 37 | 1010.5 |
| 20260505003040 | 20 | 173 | 0.0 | 0.0 | 0.00 | 0.00 | 0.00 | 28 | 1009.0 |
| 20260505001547 | 20 | 79 | 1.6 | 6.4 | 0.00 | 0.00 | 0.00 | 37 | 1010.3 |
| 20260505001539 | 20 | 239 | 0.0 | 0.0 | 0.00 | 0.00 | 0.00 | 27 | 1008.7 |
| 20260505000050 | 21 | 230 | 0.0 | 0.0 | 0.00 | 0.00 | 0.00 | 28 | 1008.6 |
| 20260505000047 | 21 | 82 | 0.0 | 6.4 | 0.00 | 0.00 | 0.00 | 37 | 1010.0 |
| 20260504234547 | 21 | 117 | 0.0 | 3.2 | 0.00 | 0.00 | 0.00 | 36 | 1009.8 |
| 20260504233055 | 21 | 235 | 0.0 | 0.0 | 0.00 | 0.00 | 0.00 | 27 | 1008.1 |
| 20260504233048 | 21 | 83 | 0.0 | 6.4 | 0.00 | 0.00 | 0.00 | 35 | 1009.6 |
| 20260504231617 | 21 | 67 | 1.6 | 11.3 | 0.00 | 0.00 | 0.00 | 35 | 1009.4 |
| 20260504231538 | 21 | 191 | 0.0 | 0.0 | 0.00 | 0.00 | 0.00 | 26 | 1008.0 |
| 20260504230045 | 22 | 63 | 4.8 | 9.7 | 0.00 | 0.00 | 0.00 | 34 | 1009.3 |
| 20260504230038 | 21 | 201 | 0.0 | 0.0 | 0.00 | 0.00 | 0.00 | 26 | 1007.8 |
| 20260504224545 | 22 | 70 | 1.6 | 8.0 | 0.00 | 0.00 | 0.00 | 34 | 1009.2 |
| 20260504224539 | 22 | 231 | 0.0 | 0.0 | 0.00 | 0.00 | 0.00 | 26 | 1007.8 |
| 20260504223053 | 22 | 189 | 0.0 | 0.0 | 0.00 | 0.00 | 0.00 | 26 | 1008.0 |
| 20260504223046 | 22 | 65 | 0.0 | 8.0 | 0.00 | 0.00 | 0.00 | 33 | 1009.3 |
| 20260504221608 | 22 | 70 | 3.2 | 8.0 | 0.00 | 0.00 | 0.00 | 33 | 1009.4 |
| 20260504221538 | 22 | 205 | 0.0 | 0.0 | 0.00 | 0.00 | 0.00 | 25 | 1008.0 |
| 20260504220040 | 22 | 94 | 3.2 | 9.7 | 0.00 | 0.00 | 0.00 | 32 | 1009.5 |
| 20260504220034 | 22 | 215 | 0.0 | 0.0 | 0.00 | 0.00 | 0.00 | 25 | 1008.1 |
| 20260504214539 | 23 | 181 | 1.6 | 9.7 | 0.00 | 0.00 | 0.00 | 32 | 1009.6 |
| 20260504214533 | 22 | 246 | 0.0 | 0.0 | 0.00 | 0.00 | 0.00 | 24 | 1008.1 |
| 20260504213138 | 23 | 271 | 3.2 | 12.9 | 0.00 | 0.00 | 0.00 | 32 | 1009.8 |
| 20260504213045 | 22 | 300 | 0.0 | 0.0 | 0.00 | 0.00 | 0.00 | 24 | 1008.3 |
| 20260504211536 | 23 | 340 | 3.2 | 8.0 | 0.00 | 0.00 | 0.00 | 31 | 1009.9 |
| 20260504211534 | 22 | 195 | 0.0 | 0.0 | 0.00 | 0.00 | 0.00 | 24 | 1008.3 |
| 20260504210035 | 23 | 124 | 3.2 | 12.9 | 0.00 | 0.00 | 0.00 | 31 | 1009.8 |
| 20260504210033 | 22 | 272 | 0.0 | 0.0 | 0.00 | 0.00 | 0.00 | 24 | 1008.3 |
| 20260504204541 | 23 | 244 | 0.0 | 0.0 | 0.00 | 0.00 | 0.00 | 23 | 1008.2 |
| 20260504204536 | 23 | 60 | 4.8 | 12.9 | 0.00 | 0.00 | 0.00 | 30 | 1009.8 |
| 20260504203034 | 23 | 110 | 1.6 | 12.9 | 0.00 | 0.00 | 0.00 | 30 | 1009.8 |
| 20260504203026 | 23 | 269 | 0.0 | 0.0 | 0.00 | 0.00 | 0.00 | 23 | 1008.1 |
| 20260504201531 | 23 | 72 | 3.2 | 9.7 | 0.00 | 0.00 | 0.00 | 30 | 1010.0 |
| 20260504201523 | 23 | 220 | 0.0 | 0.0 | 0.00 | 0.00 | 0.00 | 23 | 1008.4 |
| 20260504200028 | 24 | 24 | 0.0 | 9.7 | 0.00 | 0.00 | 0.00 | 31 | 1010.0 |
| 20260504200023 | 23 | 231 | 0.0 | 0.0 | 0.00 | 0.00 | 0.00 | 24 | 1008.4 |